Wind_Speed
51 51 53 52 52 52 54 56 56 56 61 58 61 66 67 63 62 66 68 67 65 58 55 51 49 49 48 50 49 50 50 52 52
55 53 53 53 53 56 57 58 57 58 58 60 63 64 65 62 65 67 70 65 56 50 47 46 46 46 46 47 47 48 50 51 52
59 56 54 54 55 60 58 58 58 57 61 61 63 68 66 66 66 68 69 61 50 47 47 48 48 49 49 50 50 50 51 53 53
60 58 61 58 57 59 59 62 55 62 61 65 71 70 65 65 66 68 64 55 48 49 50 50 48 48 49 50 51 51 53 54 53
64 64 63 63 62 60 63 55 60 60 65 66 70 65 66 66 68 64 58 52 51 49 48 47 47 47 48 48 49 49 50 52 53
66 66 67 66 66 61 58 59 60 62 63 70 67 65 67 68 67 60 53 50 48 47 47 46 45 44 45 45 46 47 49 49 51
65 63 62 63 65 64 62 62 64 66 69 71 66 64 64 67 63 55 48 48 45 43 43 41 42 41 44 45 45 46 47 49 49
72 70 71 68 65 65 65 68 68 70 68 65 64 64 65 65 60 48 45 43 42 42 44 43 42 43 45 44 45 45 46 48 49
74 74 74 72 69 67 69 70 70 67 66 64 63 64 64 60 56 47 45 43 42 43 44 45 46 48 48 48 48 47 46 48 51
78 76 75 73 72 71 71 72 71 68 66 65 65 64 59 55 49 45 43 44 44 44 46 47 48 48 49 50 50 50 50 50 51
76 75 75 75 75 72 72 72 69 67 64 66 64 59 55 49 48 46 45 44 45 45 47 48 50 51 52 53 53 53 53 54 56
72 73 73 71 69 68 68 70 70 67 66 64 59 55 49 48 46 47 47 47 48 49 49 51 53 54 55 56 57 58 58 59 61
67 67 66 67 67 68 67 69 66 68 66 59 56 52 49 47 48 48 50 51 51 53 54 55 57 59 60 62 63 64 64 66 66
62 63 65 66 65 65 68 66 67 68 58 54 53 51 48 49 51 53 55 57 57 58 58 59 62 65 67 68 70 72 73 76 77
58 61 65 64 64 63 64 66 66 56 54 53 53 49 50 53 56 57 60 62 62 65 66 68 69 71 74 77 78 80 81 82 84
56 56 60 60 61 61 64 59 53 54 53 53 50 52 54 58 62 63 66 68 69 72 74 76 77 80 82 84 86 89 92 93 95
53 55 56 59 60 59 54 51 50 49 52 52 54 57 59 62 66 69 71 73 75 79 81 83 86 87 91 93 95 97 100 103 104
49 51 53 52 53 50 50 49 48 50 52 54 58 61 64 68 75 78 79 79 82 85 89 92 94 96 99 102 103 105 109 105 98
50 49 49 49 49 49 49 49 51 53 55 60 63 65 68 71 75 83 87 88 91 94 98 102 103 106 109 111 111 114 106 100 99
49 50 49 49 49 48 49 51 54 57 61 65 68 71 74 77 77 78 86 91 96 100 104 108 111 115 118 119 120 112 107 107 106
Wind_Direction
277 281 281 281 282 284 285 287 288 291 294 296 300 301 303 303 304 308 305 306 300 295 292 289 286 283 280 277 275 273 272 269 268
276 276 279 283 285 286 287 288 288 291 293 297 301 304 305 301 301 306 310 307 300 296 294 291 289 285 282 279 276 274 272 270 268
275 273 277 282 280 285 286 286 287 287 293 297 299 305 306 307 306 308 311 306 299 294 294 292 290 285 282 280 276 273 271 269 267
276 277 281 281 282 292 287 280 283 289 292 297 302 305 308 310 310 308 308 302 297 294 296 294 290 287 283 280 277 276 274 271 268
275 278 279 282 285 285 288 282 286 290 293 294 301 304 307 310 308 307 305 298 296 296 296 293 290 288 285 282 279 275 273 272 268
274 276 279 282 284 288 287 287 287 290 293 299 302 303 307 308 309 305 301 297 296 297 297 295 294 289 286 285 283 280 276 272 269
274 276 278 280 282 285 286 288 288 292 297 299 301 305 307 307 305 300 295 296 297 299 300 300 301 299 295 292 288 284 281 276 271
272 275 278 278 280 282 284 288 289 294 299 299 299 303 306 306 303 295 294 294 296 299 300 302 302 303 304 301 296 293 286 282 277
272 274 277 278 279 281 284 287 290 294 297 299 299 302 302 301 297 291 292 291 292 295 298 299 300 301 301 299 298 296 294 288 284
271 274 276 278 279 281 283 287 289 292 296 297 298 298 297 297 292 291 290 294 296 296 296 298 298 298 297 296 296 295 292 289 286
271 272 274 278 279 280 283 287 287 291 294 296 295 292 295 293 292 293 294 296 298 299 299 298 298 297 296 295 294 293 292 289 286
274 274 275 278 278 281 282 285 288 288 290 292 290 288 290 290 289 293 297 298 298 297 296 295 294 294 293 293 292 290 288 287 286
272 273 274 275 276 278 280 283 285 286 288 287 286 286 290 291 292 292 291 292 292 291 292 294 294 293 293 292 291 289 288 286 285
270 270 271 273 274 276 278 280 283 284 282 284 284 287 290 289 289 290 292 291 291 292 293 293 294 295 296 294 293 291 290 288 286
267 270 270 271 272 275 275 277 280 278 280 281 284 287 288 288 288 288 290 289 289 291 292 291 292 293 294 294 292 291 291 289 286
268 270 271 272 272 271 273 277 276 278 281 284 285 287 287 289 289 290 290 290 290 291 292 293 293 294 296 295 293 293 292 291 289
271 271 272 271 270 273 274 273 277 279 282 285 287 287 288 288 289 289 289 289 288 290 293 293 292 293 296 295 293 294 294 293 290
272 270 271 271 273 273 273 276 278 280 283 285 286 287 289 290 291 291 291 291 291 292 293 294 293 293 294 295 295 295 294 292 287
269 270 271 270 272 273 276 278 280 282 283 284 286 287 287 290 292 294 294 295 294 296 297 296 296 295 296 297 297 297 294 290 287
269 269 268 270 272 275 277 279 282 284 284 285 287 288 290 291 291 291 293 294 294 296 298 299 298 298 298 299 298 296 294 292 290
Height
10878 10877 10877 10876 10874 10873 10872 10870 10868 10865 10863 10861 10858 10854 10849 10842 10836 10830 10824 10817 10810 10804 10801 10798 10795 10793 10792 10792 10792 10792 10792 10793 10794
10870 10869 10868 10867 10866 10865 10863 10861 10858 10856 10854 10851 10847 10842 10837 10832 10826 10819 10811 10804 10797 10794 10791 10789 10787 10785 10783 10782 10781 10782 10782 10782 10782
10861 10861 10860 10859 10858 10855 10852 10850 10848 10847 10844 10840 10836 10831 10825 10819 10813 10806 10800 10793 10788 10785 10783 10780 10778 10775 10773 10771 10770 10770 10770 10770 10770
10851 10851 10851 10849 10848 10845 10843 10840 10838 10837 10833 10830 10825 10820 10814 10807 10801 10795 10789 10784 10780 10776 10773 10769 10766 10764 10762 10761 10759 10759 10758 10758 10758
10841 10840 10839 10838 10836 10834 10832 10829 10827 10825 10823 10819 10814 10808 10803 10796 10791 10783 10777 10774 10770 10767 10763 10759 10756 10753 10751 10750 10749 10747 10746 10746 10745
10831 10830 10830 10827 10825 10823 10821 10819 10817 10814 10811 10808 10802 10796 10791 10785 10779 10772 10767 10764 10759 10756 10753 10749 10746 10744 10741 10739 10738 10736 10735 10734 10734
10820 10819 10819 10816 10814 10812 10811 10808 10805 10804 10800 10795 10790 10784 10779 10774 10767 10762 10758 10754 10750 10746 10744 10740 10737 10734 10733 10730 10727 10726 10725 10724 10723
10809 10808 10807 10805 10804 10802 10800 10797 10794 10792 10789 10783 10778 10773 10767 10762 10757 10752 10747 10744 10740 10737 10734 10732 10729 10726 10724 10721 10717 10716 10715 10713 10712
10796 10795 10794 10793 10792 10790 10788 10785 10782 10779 10776 10771 10766 10761 10756 10750 10745 10740 10736 10733 10730 10727 10725 10722 10719 10716 10714 10710 10708 10707 10705 10703 10701
10782 10782 10781 10780 10779 10777 10775 10772 10769 10765 10762 10758 10754 10749 10744 10740 10735 10730 10725 10722 10719 10716 10714 10711 10708 10706 10704 10700 10698 10696 10694 10692 10690
10768 10768 10767 10766 10765 10764 10762 10759 10755 10752 10748 10745 10741 10736 10732 10728 10725 10720 10715 10711 10708 10705 10703 10700 10698 10695 10693 10690 10688 10686 10684 10681 10677
10753 10753 10753 10753 10751 10750 10748 10745 10742 10738 10736 10733 10728 10724 10720 10717 10713 10709 10705 10701 10698 10695 10692 10690 10686 10684 10681 10678 10676 10674 10672 10669 10665
10739 10738 10738 10738 10737 10737 10734 10731 10728 10725 10722 10719 10716 10712 10708 10704 10701 10697 10694 10691 10687 10683 10680 10677 10673 10670 10667 10665 10662 10659 10657 10653 10650
10725 10723 10723 10723 10723 10722 10719 10716 10713 10710 10708 10705 10704 10700 10696 10692 10689 10685 10682 10677 10673 10669 10666 10662 10658 10654 10651 10648 10644 10641 10639 10636 10633
10709 10709 10708 10708 10708 10707 10704 10702 10700 10696 10692 10692 10690 10687 10684 10680 10676 10672 10668 10663 10659 10655 10651 10646 10642 10639 10634 10630 10625 10621 10618 10615 10610
10696 10695 10696 10696 10695 10693 10691 10690 10686 10683 10679 10677 10677 10673 10670 10666 10661 10657 10653 10648 10643 10638 10633 10627 10623 10618 10614 10609 10603 10597 10592 10587 10582
10685 10684 10684 10683 10682 10680 10679 10677 10675 10671 10668 10665 10662 10660 10658 10652 10646 10642 10637 10632 10625 10619 10614 10607 10601 10597 10590 10585 10579 10573 10566 10558 10552
10674 10673 10672 10670 10669 10667 10666 10664 10663 10661 10657 10653 10651 10647 10641 10638 10627 10621 10617 10613 10605 10599 10592 10584 10578 10571 10566 10559 10553 10546 10538 10530 10522
10665 10663 10661 10659 10657 10656 10654 10652 10651 10649 10646 10642 10637 10633 10630 10626 10622 10602 10590 10588 10578 10571 10563 10553 10546 10538 10533 10526 10519 10511 10503 10496 10491
10653 10651 10649 10648 10647 10645 10643 10641 10639 10636 10632 10628 10623 10619 10614 10611 10609 10606 10584 10571 10558 10549 10539 10524 10514 10503 10494 10488 10480 10473 10467 10461 10455